Regional Weather Roundup
Issued by NWS

Home | Current Version | Previous Version | Text Only | Print | Product List | Glossary On
Versions: 1 2 3 4 5 6 7 8 9 10 11 12 13 14 15 16 17 18 19 20 21 22 23 24 25 26 27 28 29 30 31 32 33 34 35 36 37 38 39 40 41 42 43 44 45 46 47 48 49 50
000
ASUS45 KREV 300310
RWRNV
NEVADA REGIONAL WEATHER ROUNDUP
NATIONAL WEATHER SERVICE RENO NV
700 PM PST THU JAN 29 2015

NOTE: "FAIR" INDICATES FEW OR NO CLOUDS BELOW 12,000 FEET WITH NO
SIGNIFICANT WEATHER AND/OR OBSTRUCTIONS TO VISIBILITY.

NVZ001-003-004-300400-
WESTERN NEVADA

CITY           SKY/WX    TMP DP  RH WIND       PRES   REMARKS
RENO           CLOUDY    50  34  54 CALM      30.18S
CARSON CITY    CLOUDY    46  34  61 NE14      30.19R
SLIDE MTN        N/A     30  28  93 CALM        N/A
PYRAMID LAKE     N/A     48 N/A N/A S2          N/A
FALLON         MOCLDY    44  38  79 NE6       30.19R
LOVELOCK       CLOUDY    46  40  79 E3        30.19R
HAWTHORNE      CLOUDY    50  36  57 CALM      30.18R
$$

NVZ002-CAZ072-073-300400-
NORTHERN AND CENTRAL SIERRA

CITY           SKY/WX    TMP DP  RH WIND       PRES   REMARKS
S. LAKE TAHOE  PTCLDY    37  29  72 CALM      30.18R
TRUCKEE        CLOUDY    41  32  70 CALM      30.19R
SQUAW VLY 8000   N/A     36  32  87 CALM        N/A
SUSANVILLE     CLEAR     39  32  75 W6        30.19R
BLUE CANYON    PTCLDY    46  33  60 NE5       30.17R
MAMMOTH LAKES  CLOUDY    36  25  64 CALM      30.19S
BRIDGEPORT     FAIR      36  26  67 VRB3      30.17S
$$

NVZ030-031-036-300400-
NORTHERN NEVADA

CITY           SKY/WX    TMP DP  RH WIND       PRES   REMARKS
ELKO           CLOUDY    41  33  73 E3        30.22R
WINNEMUCCA     MOCLDY    41  33  73 NE13G20   30.22R
WENDOVER       CLOUDY    41  32  70 W3        30.27S
$$

NVZ035-037-300400-
CENTRAL NEVADA

CITY           SKY/WX    TMP DP  RH WIND       PRES   REMARKS
ELY            LGT RAIN  36  35  96 CALM      30.25R
EUREKA           N/A     41  32  70 SE10      30.21R
$$

NVZ013-014-300400-
SOUTH CENTRAL NEVADA

CITY           SKY/WX    TMP DP  RH WIND       PRES   REMARKS
TONOPAH        CLOUDY    43  34  70 E8        30.19S
$$

NVZ017-020-022-300400-
SOUTHERN NEVADA

CITY           SKY/WX    TMP DP  RH WIND       PRES   REMARKS
LAS VEGAS      CLOUDY    61  38  42 SW7       30.04S
N. LAS VEGAS   CLOUDY    60  36  40 N3        30.06F
NELLIS AFB     CLOUDY    62  38  40 N5        30.06F
HENDERSON      CLOUDY    55  42  61 SE5       30.10S
MERCURY        CLOUDY    55  38  52 NE8       30.10S
$$



USA.gov is the U.S. government's official web portal to all federal, state and local government web resources and services.